Regional Weather Roundup
Issued by NWS

Home | Current Version | Previous Version | Graphics & Text | Print | Product List | Glossary On
Versions: 1 2 3 4 5 6 7 8 9 10 11 12 13 14 15 16 17 18 19 20 21 22 23 24 25 26 27 28 29 30 31 32 33 34 35 36 37 38 39 40 41 42 43 44 45 46 47 48 49 50
000
ASUS43 KOAX 260102
RWRNE

WEATHER ROUNDUP FOR NEBRASKA
NATIONAL WEATHER SERVICE OMAHA NE
800 PM CDT FRI JUL 25 2014

NOTES: SATELLITE DATA IS BEING USED TO AUGMENT CLOUD COVER ABOVE
       12000 FEET.
       "FAIR" INDICATES FEW OR NO CLOUDS BELOW 12,000 FEET WITH NO
       SIGNIFICANT WEATHER AND/OR OBSTRUCTIONS TO VISIBILITY.

  * THESE STATIONS DO NOT REPORT WEATHER SUCH AS RAIN...SNOW OR FOG.

NEZ001>004-019>022-054>056-260200-
NEBRASKA PANHANDLE

CITY           SKY/WX    TMP DP  RH WIND       PRES   REMARKS
SCOTTSBLUFF    CLOUDY    75  66  73 E13       29.94F
ALLIANCE       TSTM      79  57  46 NW7       30.01R
CHADRON        PTSUNNY   85  54  34 SE13      29.85F
KIMBALL        CLOUDY    78  58  49 SW5       30.03R
SIDNEY         CLOUDY    89  49  25 S16       29.96F
$$

NEZ057>060-069>072-079>082-260200-
SOUTHWEST NEBRASKA

CITY           SKY/WX    TMP DP  RH WIND       PRES   REMARKS
NORTH PLATTE   MOSUNNY   83  71  67 E6        29.85S
IMPERIAL       CLOUDY    86  66  51 CALM      29.89F
LEXINGTON      CLEAR     87  72  60 CALM      29.84F HX  93
MCCOOK         PTSUNNY   87  68  52 E6        29.85S HX  90
OGALLALA       HAZE      83  64  51 SE6       29.90R VSB 3/4
$$

NEZ005>010-023>029-035>040-094-260200-
NORTH CENTRAL NEBRASKA

CITY           SKY/WX    TMP DP  RH WIND       PRES   REMARKS
VALENTINE      SUNNY     87  59  38 NE5       29.84S
AINSWORTH      MOSUNNY   87  66  49 SE5       29.85R
BROKEN BOW     MOSUNNY   86  72  62 SE6       29.84F HX  92
O`NEILL        CLEAR     89  66  46 CALM      29.80S HX  92
ORD            PTCLDY    85  73  67 SW3       29.80S HX  91
THEDFORD       PTSUNNY   86  66  51 CALM      29.89R
$$

NEZ041-046>049-061>064-073>077-083>087-260200-
SOUTH CENTRAL NEBRASKA

CITY           SKY/WX    TMP DP  RH WIND       PRES   REMARKS
GRAND ISLAND   PTCLDY    89  74  60 W6        29.81R HX  98
AURORA         PTCLDY    87  77  72 CALM      29.79R HX  99
HASTINGS       PTCLDY    88  70  55 NW5       29.81R HX  93
HEBRON         CLEAR     89  72  56 CALM      29.76R HX  96
HOLDREGE       CLEAR     84  72  67 CALM      29.83S
KEARNEY *      PTCLDY    88  70  55 NW7       29.83S HX  92
YORK           CLEAR     86  79  79 N3        29.78S HX  99
$$

NEZ011>018-030>034-042>045-260200-
NORTHEAST NEBRASKA

CITY           SKY/WX    TMP DP  RH WIND       PRES   REMARKS
NORFOLK        PTCLDY    86  73  65 E5        29.77R HX  93
ALBION         PTCLDY    85  73  65 CALM      29.80R HX  92
BLAIR          PTCLDY    85  77  75 N7        29.74S HX  96
COLUMBUS *     PTCLDY    84  73  70 NW6       29.77R HX  91
FREMONT        PTCLDY    88  76  68 NE6       29.74S HX  99
WAYNE          CLEAR     84  76  76 E6        29.78R HX  93
$$

NEZ050>053-065>068-078-088>093-260200-
SOUTHEAST NEBRASKA

CITY           SKY/WX    TMP DP  RH WIND       PRES   REMARKS
LINCOLN        CLEAR     92  74  55 N8        29.74S HX 101
OMAHA EPPLEY   MOCLDY    89  78  70 E8        29.72S HX 103
BEATRICE       CLEAR     88  79  73 N5        29.74R HX 103
FALLS CITY     CLEAR     95  71  45 SW9       29.71S HX 102
NEBRASKA CITY  PTCLDY    88  75  63 N6        29.73R HX  98
PLATTSMOUTH    PTCLDY    89  76  64 CALM      29.73S HX 100
$$

NEZ044-045-051>053-067-260200-
OMAHA AREA

CITY           SKY/WX    TMP DP  RH WIND       PRES   REMARKS
OMAHA EPPLEY   MOCLDY    89  78  70 E8        29.72S HX 103
BLAIR          PTCLDY    85  77  75 N7        29.74S HX  96
FREMONT        PTCLDY    88  76  68 NE6       29.74S HX  99
MILLARD        PTCLDY    88  74  62 NW3       29.72S HX  97
OFFUTT AFB     PTCLDY    89  83  81 CALM      29.72S HX 112
PLATTSMOUTH    PTCLDY    89  76  64 CALM      29.73S HX 100
WAHOO          FAIR      88  77  70 CALM      29.74R HX 101
$$



USA.gov is the U.S. government's official web portal to all federal, state and local government web resources and services.